Volver al catálogo

CZ-2D DEB

ActivoSSO
NORAD 44612·DEBRIS·🇨🇳 China

Lanzado Oct 9, 2017 desde Jiuquan Satellite Launch Center

Loading…

Próximos Pases (próximas 24 horas)

TLE

ActualizadoSource: Space-Track

Época: Sep 14, 2026, 11:10 UTC

1 44612U 17060E   26257.46562934  .00002803  00000-0  26075-3 0  9998
2 44612  97.5943 258.5081 0010953 148.8215 211.3658 14.95060348480224

Sigue CZ-2D DEB en tiempo real con AllMySat

Download on the App Store